Tracking 29059 objects as of 19-Jun-2024
HD Live streaming from Space Station
objects crossing your sky now

SKYSAT C13

Track SKYSAT C13 now!
10-day predictions


NORAD ID: 43802
Int'l Code: 2018-099AW
Perigee: 452.3 km
Apogee: 452.5 km
Inclination: 97.0 °
Period: 93.5 minutes
Semi major axis: 6823 km
RCS: Unknown
Launch date: December 3, 2018
Source: United States (US)
Launch site: AIR FORCE WESTERN TEST RANGE (AFWTR)
Your satellite tracking list
Your tracking list is empty




NASA's NSSDC Master Catalog

Two Line Element Set (TLE):
1 43802U 18099AW  24170.06499342  .00014225  00000-0  35498-3 0  9991
2 43802  97.0406 224.2389 0000116 341.8643  18.2600 15.40281739309584
Source of the keplerian elements: AFSPC